Location: *
(45.5224°N, 122.7471°W)
Time: 04:42:51
(UTC+00:00)

STARLINK-1045 - Pass Details

Date: 09 April 2020
Orbit: 548 x 551 km, 53.0° (Epoch: 25 May)

Event Time Altitude Azimuth Distance (km) Brightness Sun altitude
Exits shadow 12:45:16 11° 265° (W) 1,732 5.5 -9.2°
Maximum altitude 12:49:01 46° 338° (NNW) 747 4.3 -8.6°
Drops below altitude 10° 12:53:02 10° 53° (NE) 1,829 7.7 -7.9°
Sets 12:55:21 0° 59° (ENE) 2,725 9.2 -7.5°
